TimeCDT,TemperatureF,Dew PointF,Humidity,Sea Level PressureIn,VisibilityMPH,Wind Direction,Wind SpeedMPH,Gust SpeedMPH,PrecipitationIn,Events,Conditions,WindDirDegrees,DateUTC
12:15 AM,50.0,50.0,100,29.88,2.5,West,3.5,-,0.01,Rain,Light Rain,260,2013-03-11 05:15:00
12:35 AM,50.0,50.0,100,29.87,4.0,West,8.1,-,0.02,Rain,Light Rain,270,2013-03-11 05:35:00
12:55 AM,50.0,48.2,94,29.87,3.0,West,6.9,-,0.04,Rain,Light Rain,270,2013-03-11 05:55:00
1:15 AM,48.2,48.2,100,29.88,2.0,West,5.8,-,0.02,Rain,Rain,260,2013-03-11 06:15:00
1:35 AM,48.2,46.4,93,29.89,1.8,WNW,8.1,17.3,0.11,Rain,Rain,300,2013-03-11 06:35:00
1:55 AM,46.4,44.6,93,29.91,2.5,WNW,5.8,-,0.16,Rain,Light Rain,290,2013-03-11 06:55:00
2:15 AM,44.6,44.6,100,29.91,2.5,WNW,6.9,-,0.04,Rain,Rain,290,2013-03-11 07:15:00
2:35 AM,44.6,42.8,93,29.88,2.5,NNW,4.6,-,0.09,Rain,Rain,330,2013-03-11 07:35:00
2:55 AM,44.6,42.8,93,29.88,2.5,NW,4.6,-,0.10,Rain,Light Rain,310,2013-03-11 07:55:00
3:15 AM,44.6,42.8,93,29.90,7.0,WNW,5.8,-,N/A,,Overcast,290,2013-03-11 08:15:00
3:35 AM,42.8,41.0,93,29.90,8.0,WNW,5.8,-,N/A,,Mostly Cloudy,300,2013-03-11 08:35:00
3:55 AM,42.8,41.0,93,29.89,8.0,WNW,5.8,-,N/A,,Overcast,290,2013-03-11 08:55:00
4:15 AM,42.8,41.0,93,29.88,9.0,West,4.6,-,N/A,,Mostly Cloudy,280,2013-03-11 09:15:00
4:35 AM,42.8,39.2,87,29.90,9.0,West,6.9,-,N/A,,Overcast,270,2013-03-11 09:35:00
4:55 AM,41.0,37.4,87,29.90,10.0,West,3.5,-,N/A,,Overcast,270,2013-03-11 09:55:00
5:15 AM,41.0,37.4,87,29.91,10.0,West,6.9,-,N/A,,Overcast,280,2013-03-11 10:15:00
5:35 AM,41.0,37.4,87,29.91,10.0,West,5.8,-,N/A,,Mostly Cloudy,260,2013-03-11 10:35:00
5:55 AM,41.0,37.4,87,29.91,10.0,West,4.6,-,N/A,,Mostly Cloudy,280,2013-03-11 10:55:00
6:15 AM,41.0,35.6,81,29.91,10.0,WNW,8.1,-,N/A,,Overcast,290,2013-03-11 11:15:00
6:35 AM,41.0,35.6,81,29.90,10.0,WNW,5.8,-,N/A,,Overcast,300,2013-03-11 11:35:00
6:55 AM,41.0,35.6,81,29.91,10.0,WSW,3.5,-,N/A,,Overcast,240,2013-03-11 11:55:00
7:15 AM,41.0,35.6,81,29.90,10.0,WNW,4.6,-,N/A,,Overcast,300,2013-03-11 12:15:00
7:55 AM,39.2,35.6,87,29.94,8.0,West,9.2,-,N/A,,Overcast,270,2013-03-11 12:55:00
8:35 AM,39.2,33.8,81,29.95,7.0,West,5.8,-,N/A,,Overcast,280,2013-03-11 13:35:00
8:55 AM,39.2,32.0,75,29.96,7.0,WNW,9.2,-,N/A,,Overcast,300,2013-03-11 13:55:00
9:15 AM,39.2,32.0,75,29.94,8.0,NW,11.5,-,N/A,,Overcast,310,2013-03-11 14:15:00
9:35 AM,39.2,32.0,75,29.95,8.0,West,8.1,-,N/A,,Overcast,260,2013-03-11 14:35:00
9:55 AM,39.2,30.2,70,29.95,7.0,WNW,8.1,-,N/A,,Overcast,290,2013-03-11 14:55:00
10:15 AM,39.2,30.2,70,29.94,9.0,West,8.1,17.3,N/A,,Overcast,280,2013-03-11 15:15:00
10:35 AM,41.0,30.2,65,29.95,9.0,West,12.7,18.4,N/A,,Mostly Cloudy,270,2013-03-11 15:35:00
10:55 AM,41.0,30.2,65,29.96,9.0,WNW,9.2,-,N/A,,Mostly Cloudy,300,2013-03-11 15:55:00
11:15 AM,41.0,30.2,65,29.96,9.0,WNW,12.7,19.6,N/A,,Mostly Cloudy,290,2013-03-11 16:15:00
11:35 AM,42.8,30.2,61,29.96,9.0,West,11.5,-,N/A,,Scattered Clouds,270,2013-03-11 16:35:00
11:55 AM,44.6,32.0,61,29.96,8.0,WNW,10.4,19.6,N/A,,Scattered Clouds,300,2013-03-11 16:55:00
12:15 PM,44.6,30.2,57,29.97,9.0,NW,13.8,17.3,N/A,,Partly Cloudy,310,2013-03-11 17:15:00
12:35 PM,44.6,30.2,57,29.97,9.0,NW,10.4,-,N/A,,Clear,320,2013-03-11 17:35:00
12:55 PM,44.6,30.2,57,29.96,9.0,WNW,10.4,-,N/A,,Scattered Clouds,300,2013-03-11 17:55:00
1:35 PM,44.6,30.2,57,29.95,8.0,West,9.2,-,N/A,,Mostly Cloudy,280,2013-03-11 18:35:00
1:55 PM,44.6,32.0,61,29.94,8.0,WNW,9.2,-,N/A,,Mostly Cloudy,300,2013-03-11 18:55:00
2:15 PM,44.6,30.2,57,29.94,7.0,WNW,9.2,-,N/A,,Scattered Clouds,290,2013-03-11 19:15:00
2:35 PM,44.6,30.2,57,29.95,8.0,NW,11.5,18.4,N/A,,Mostly Cloudy,310,2013-03-11 19:35:00
2:55 PM,44.6,30.2,57,29.94,7.0,West,10.4,16.1,N/A,,Scattered Clouds,280,2013-03-11 19:55:00
3:35 PM,44.6,30.2,57,29.95,9.0,WNW,9.2,-,N/A,,Mostly Cloudy,290,2013-03-11 20:35:00
3:55 PM,46.4,30.2,53,29.95,9.0,NNW,12.7,17.3,N/A,,Partly Cloudy,330,2013-03-11 20:55:00
4:15 PM,44.6,28.4,53,29.95,9.0,NNW,12.7,-,N/A,,Clear,330,2013-03-11 21:15:00
4:35 PM,44.6,28.4,53,29.95,9.0,WNW,12.7,17.3,N/A,,Clear,300,2013-03-11 21:35:00
4:55 PM,44.6,28.4,53,29.95,9.0,NW,12.7,17.3,N/A,,Partly Cloudy,310,2013-03-11 21:55:00
5:15 PM,42.8,28.4,57,29.96,8.0,NW,9.2,-,N/A,,Clear,320,2013-03-11 22:15:00
5:35 PM,42.8,28.4,57,29.97,9.0,NW,6.9,-,N/A,,Scattered Clouds,310,2013-03-11 22:35:00
6:15 PM,42.8,28.4,57,29.98,9.0,WNW,6.9,-,N/A,,Mostly Cloudy,300,2013-03-11 23:15:00
6:35 PM,42.8,28.4,57,29.99,9.0,West,4.6,-,N/A,,Mostly Cloudy,280,2013-03-11 23:35:00
6:55 PM,41.0,30.2,65,29.99,9.0,West,3.5,-,N/A,,Overcast,270,2013-03-11 23:55:00
7:15 PM,41.0,32.0,70,29.99,10.0,West,3.5,-,N/A,,Overcast,270,2013-03-12 00:15:00
7:35 PM,41.0,30.2,65,30.00,10.0,Calm,Calm,-,N/A,,Partly Cloudy,0,2013-03-12 00:35:00
8:15 PM,37.4,32.0,81,30.01,10.0,Calm,Calm,-,N/A,,Clear,0,2013-03-12 01:15:00
8:35 PM,37.4,32.0,81,30.02,10.0,Calm,Calm,-,N/A,,Clear,0,2013-03-12 01:35:00
8:55 PM,35.6,32.0,87,30.02,10.0,Calm,Calm,-,N/A,,Clear,0,2013-03-12 01:55:00
9:15 PM,35.6,32.0,87,30.04,10.0,Calm,Calm,-,N/A,,Clear,0,2013-03-12 02:15:00
9:55 PM,32.0,32.0,100,30.04,9.0,Calm,Calm,-,N/A,,Clear,0,2013-03-12 02:55:00
10:15 PM,32.0,32.0,100,30.04,10.0,Calm,Calm,-,N/A,,Clear,0,2013-03-12 03:15:00
10:35 PM,32.0,30.2,93,30.04,9.0,Calm,Calm,-,N/A,,Clear,0,2013-03-12 03:35:00
10:55 PM,32.0,30.2,93,30.05,8.0,Calm,Calm,-,N/A,,Clear,0,2013-03-12 03:55:00
11:15 PM,32.0,30.2,93,30.05,9.0,Calm,Calm,-,N/A,,Clear,0,2013-03-12 04:15:00
11:35 PM,32.0,28.4,87,30.05,8.0,Calm,Calm,-,N/A,,Clear,0,2013-03-12 04:35:00
11:55 PM,30.2,28.4,93,30.05,8.0,Calm,Calm,-,N/A,,Clear,0,2013-03-12 04:55:00